Location: Felsheim
(48.7267°N, 10.7386°E)
Time: 10:10:07
(UTC+00:00)

Thor Agena Rocket - Visible Passes

Search period start: 11 August 2020 00:00
Search period end: 21 August 2020 00:00
Orbit: 759 x 808 km, 99.0° (Epoch: 10 August)

Date Brightness Start Highest point End Pass type
(mag) Time Alt. Az. Time Alt. Az. Time Alt. Az.
11 Aug 4.7 21:17:20 10° NE 21:21:23 25° E 21:21:23 25° E visible
11 Aug 4.1 22:56:10 10° N 23:01:04 50° WNW 23:01:57 45° W visible
12 Aug 5.4 20:47:13 10° ENE 20:49:31 14° E 20:49:31 14° E visible
12 Aug 3.3 22:24:38 10° NNE 22:29:46 90° WSW 22:30:05 79° SSW visible
13 Aug 5.7 00:05:20 10° NNW 00:08:24 16° NW 00:10:41 12° W visible
13 Aug 3.8 21:53:21 10° NNE 21:58:13 49° E 21:58:13 49° E visible
13 Aug 5.1 23:33:09 10° N 23:37:23 27° WNW 23:38:48 24° W visible
14 Aug 4.7 21:22:23 10° NE 21:26:21 27° E 21:26:21 27° E visible
14 Aug 4.2 23:01:22 10° N 23:06:14 46° WNW 23:06:55 44° W visible
15 Aug 5.4 20:52:06 10° NE 20:54:28 15° E 20:54:28 15° E visible
15 Aug 3.4 22:29:49 10° NNE 22:34:57 83° WNW 22:35:03 83° W visible
16 Aug 5.8 00:10:39 10° NNW 00:13:31 15° NW 00:15:38 12° W visible
16 Aug 3.8 21:58:30 10° NNE 22:03:10 53° E 22:03:10 53° E visible
16 Aug 5.1 23:38:24 10° N 23:42:32 25° WNW 23:43:45 23° W visible
17 Aug 4.6 21:27:29 10° NE 21:31:18 29° E 21:31:18 29° E visible
17 Aug 4.3 23:06:35 10° N 23:11:24 43° WNW 23:11:53 42° W visible
18 Aug 5.4 20:57:02 10° NE 20:59:25 16° ENE 20:59:25 16° ENE visible
18 Aug 3.5 22:35:01 10° NNE 22:40:00 76° NW 22:40:00 76° NW visible
19 Aug 5.8 00:16:01 10° NNW 00:18:38 14° NW 00:20:35 12° WNW visible
19 Aug 3.8 22:03:39 10° NNE 22:08:07 55° ENE 22:08:07 55° ENE visible
19 Aug 5.2 23:43:40 10° N 23:47:41 24° WNW 23:48:42 22° WNW visible
20 Aug 4.6 21:32:34 10° NNE 21:36:14 30° ENE 21:36:14 30° ENE visible
20 Aug 4.4 23:11:48 10° N 23:16:34 40° WNW 23:16:49 39° WNW visible
